This is the latest recevied weather packets stored in our database for station/object N0NB. If no packets are shown the sender has not sent any weather packets the latest 10 day(s).
| Time | Temp. | Humidity | Pressure | Rain* | Wind** | Luminosity | Snow |
|---|---|---|---|---|---|---|---|
| 1777966817 | 11.11° C | 55% | 1008.8 hPa | 0 mm | - | 0 W/m² | - |
| 1777966217 | 11.67° C | 55% | 1008.6 hPa | 0 mm | - | 0 W/m² | - |
| 1777965617 | 11.67° C | 54% | 1008.3 hPa | 0 mm | - | 0 W/m² | - |
| 1777965016 | 11.67° C | 53% | 1008.3 hPa | 0 mm | - | 0 W/m² | - |
| 1777964416 | 11.67° C | 53% | 1008 hPa | 0 mm | - | 0 W/m² | - |
| 1777963816 | 11.67° C | 53% | 1008.1 hPa | 0 mm | - | 0 W/m² | - |
| 1777963217 | 11.67° C | 53% | 1008 hPa | 0 mm | - | 0 W/m² | - |
| 1777962616 | 11.67° C | 54% | 1007.9 hPa | 0 mm | - | 0 W/m² | - |
| 1777962016 | 11.67° C | 52% | 1008 hPa | 0 mm | - | 0 W/m² | - |
| 1777961416 | 11.67° C | 53% | 1007.8 hPa | 0 mm | - | 0 W/m² | - |
| 1777960816 | 11.67° C | 53% | 1007.6 hPa | 0 mm | - | 0 W/m² | - |
| 1777960216 | 11.67° C | 53% | 1007.5 hPa | 0 mm | - | 0 W/m² | - |
| 1777959616 | 11.67° C | 54% | 1007.1 hPa | 0 mm | - | 0 W/m² | - |
| 1777959016 | 11.67° C | 54% | 1007.1 hPa | 0 mm | - | 0 W/m² | - |
| 1777958416 | 12.22° C | 55% | 1007.4 hPa | 0 mm | - | 0 W/m² | - |
| 1777957816 | 13.89° C | 48% | 1007.3 hPa | 0 mm | - | 0 W/m² | - |
| 1777957216 | 13.89° C | 45% | 1007.6 hPa | 0 mm | - | 0 W/m² | - |
| 1777956616 | 13.89° C | 43% | 1007.5 hPa | 0 mm | - | 0 W/m² | - |
| 1777956015 | 13.89° C | 43% | 1006.9 hPa | 0 mm | - | 0 W/m² | - |
| 1777955416 | 14.44° C | 43% | 1006.6 hPa | 0 mm | - | 0 W/m² | - |
| 1777954815 | 14.44° C | 43% | 1006.8 hPa | 0 mm | - | 0 W/m² | - |
| 1777954215 | 14.44° C | 42% | 1006.8 hPa | 0 mm | - | 0 W/m² | - |
| 1777953615 | 15° C | 41% | 1006.7 hPa | 0 mm | - | 0 W/m² | - |
| 1777953015 | 15° C | 40% | 1006.8 hPa | 0 mm | - | 0 W/m² | - |
| 1777952415 | 15.56° C | 39% | 1006.8 hPa | 0 mm | - | 0 W/m² | - |
* Rain latest hour (hover to see other rain measurements)
** Current wind speed in m/s (hover to see current wind gust speed)